Location: Newark
(43.0000°N, 1.6781°W)
Time: 23:09:52
(UTC+00:00)

deb Explorer IX - Pass Details

Date: 20 April 2021
Orbit: 541 x 1098 km, 38.8° (Epoch: 12 May)

Event Time Altitude Azimuth Distance (km) Brightness Sun altitude
Rises 05:53:06 0° 206° (SSW) 2,690 ? 5.6°
Reaches altitude 10° 05:56:08 10° 182° (S) 1,837 ? 6.2°
Maximum altitude 05:58:27 15° 148° (SSE) 1,607 ? 6.6°
Drops below altitude 10° 06:00:53 10° 114° (ESE) 1,943 ? 7.0°
Sets 06:04:14 0° 91° (E) 2,952 ? 7.6°
